This is the latest recevied weather packets stored in our database for station/object KG4AGD. If no packets are shown the sender has not sent any weather packets the latest 10 day(s).
| Time | Temp. | Humidity | Pressure | Rain* | Wind** | Luminosity | Snow |
|---|---|---|---|---|---|---|---|
| 1777817661 | 14.44° C | 54% | 1020.6 hPa | 0.25 mm | - | - | - |
| 1777817358 | 14.44° C | 54% | 1020.6 hPa | 0.25 mm | - | - | - |
| 1777817056 | 14.44° C | 56% | 1020.6 hPa | 0.25 mm | - | - | - |
| 1777816753 | 13.89° C | 58% | 1020.6 hPa | 0.25 mm | - | - | - |
| 1777816451 | 14.44° C | 65% | 1020.6 hPa | 0.25 mm | - | - | - |
| 1777816149 | 13.89° C | 62% | 1020.6 hPa | 0.25 mm | - | - | - |
| 1777815847 | 13.89° C | 62% | 1020.6 hPa | 0.25 mm | - | - | - |
| 1777815545 | 13.89° C | 65% | 1020.6 hPa | 0.25 mm | - | - | - |
| 1777815242 | 13.33° C | 61% | 1020.6 hPa | 0.25 mm | - | - | - |
| 1777814940 | 13.89° C | 62% | 1020.6 hPa | 0.25 mm | - | - | - |
| 1777814638 | 13.33° C | 67% | 1020.6 hPa | 0.25 mm | - | - | - |
| 1777814335 | 13.33° C | 66% | 1020.6 hPa | 0.25 mm | - | - | - |
| 1777814033 | 12.78° C | 67% | 1020.6 hPa | 0.25 mm | - | - | - |
| 1777813731 | 12.78° C | 69% | 1020.6 hPa | 0.25 mm | - | - | - |
| 1777813429 | 12.78° C | 72% | 1020.6 hPa | 0.25 mm | - | - | - |
| 1777813127 | 12.22° C | 76% | 1020.6 hPa | 0.25 mm | - | - | - |
| 1777812824 | 12.22° C | 73% | 1020.6 hPa | 0.25 mm | - | - | - |
| 1777812522 | 12.22° C | 75% | 1020.6 hPa | 0.25 mm | - | - | - |
| 1777812220 | 11.67° C | 73% | 1020.6 hPa | 0.25 mm | - | - | - |
| 1777811918 | 11.67° C | 75% | 1020.6 hPa | 0.25 mm | - | - | - |
| 1777811616 | 11.67° C | 81% | 1020.6 hPa | 0.25 mm | - | - | - |
| 1777811313 | 11.11° C | 82% | 1020.6 hPa | 0.25 mm | - | - | - |
| 1777811011 | 11.11° C | 78% | 1020.6 hPa | 0.25 mm | - | - | - |
| 1777810709 | 10.56° C | 81% | 1020.3 hPa | 0.25 mm | - | - | - |
| 1777810407 | 10° C | 78% | 1020.3 hPa | 0.25 mm | - | - | - |
* Rain since midnight (hover to see other rain measurements)
** Current wind speed in m/s (hover to see current wind gust speed)